DW7267 Weather Reports


Display with metric or nautical units.
time (UTC)temp
F
wind
direction
speed
MPH
gust
MPH
rain 1hr
in
rain 24hr
in
rain mn
in
humidity
%
barometer
mb
20210613081230 51 69 2.0 5.0 0.00 0.00 0.00 22 1019.6
20210613080723 51 175 1.0 5.0 0.00 0.00 0.00 22 1019.4
20210613080223 50 168 0.0 2.0 0.00 0.00 0.00 22 1019.6
20210613075725 50 168 0.0 3.0 0.00 0.00 0.00 22 1019.7
20210613075224 51 143 1.0 3.0 0.00 0.00 0.00 22 1019.6
20210613074724 51 144 1.0 3.0 0.00 0.00 0.00 22 1019.6
20210613074225 52 148 2.0 4.0 0.00 0.00 0.00 21 1019.6
20210613073719 52 140 2.0 4.0 0.00 0.00 0.00 21 1019.7
20210613073221 53 103 2.0 4.0 0.00 0.00 0.00 21 1019.7
20210613072721 53 117 1.0 5.0 0.00 0.00 0.00 20 1019.6
20210613072220 53 121 1.0 5.0 0.00 0.00 0.00 20 1019.4
20210613071720 53 129 2.0 5.0 0.00 0.00 0.00 20 1019.4
20210613071220 54 140 3.0 5.0 0.00 0.00 0.00 19 1019.6
20210613070721 54 98 2.0 5.0 0.00 0.00 0.00 19 1019.7
20210613070221 54 115 1.0 6.0 0.00 0.00 0.00 19 1019.7
20210613065721 54 164 1.0 6.0 0.00 0.00 0.00 19 1019.8
20210613065219 55 145 2.0 7.0 0.00 0.00 0.00 18 1019.7
20210613064721 56 152 3.0 7.0 0.00 0.00 0.00 18 1019.7
20210613064216 56 92 3.0 7.0 0.00 0.00 0.00 18 1019.7
20210613063714 56 136 3.0 7.0 0.00 0.00 0.00 18 1019.7
20210613063215 56 92 3.0 7.0 0.00 0.00 0.00 18 1019.7
20210613062715 57 148 4.0 7.0 0.00 0.00 0.00 18 1019.7
20210613062214 58 122 5.0 8.0 0.00 0.00 0.00 17 1019.7
20210613061715 58 63 4.0 8.0 0.00 0.00 0.00 17 1019.7
20210613061208 57 98 4.0 5.0 0.00 0.00 0.00 17 1019.8
20210613060702 57 73 4.0 7.0 0.00 0.00 0.00 17 1019.8
20210613060204 57 83 3.0 7.0 0.00 0.00 0.00 17 1019.9
20210613055704 57 88 2.0 6.0 0.00 0.00 0.00 18 1019.9
20210613055202 57 120 2.0 6.0 0.00 0.00 0.00 18 1019.9
20210613054700 58 97 2.0 6.0 0.00 0.00 0.00 17 1019.9
20210613054159 58 142 2.0 5.0 0.00 0.00 0.00 17 1020.0
20210613053659 58 106 2.0 5.0 0.00 0.00 0.00 17 1019.9
20210613053200 58 112 2.0 5.0 0.00 0.00 0.00 17 1020.0
20210613052653 58 127 1.0 4.0 0.00 0.00 0.00 17 1020.0
20210613052151 58 138 1.0 4.0 0.00 0.00 0.00 17 1020.0
20210613051645 59 91 1.0 4.0 0.00 0.00 0.00 17 1020.0
20210613051143 59 94 1.0 3.0 0.00 0.00 0.00 17 1020.2
20210613050643 59 110 1.0 4.0 0.00 0.00 0.00 17 1020.2
20210613050145 59 147 0.0 4.0 0.00 0.00 0.00 17 1020.2
20210613045643 59 96 1.0 2.0 0.00 0.00 0.00 17 1020.2
20210613045144 59 126 1.0 2.0 0.00 0.00 0.00 17 1020.0
20210613044641 59 141 0.0 2.0 0.00 0.00 0.00 17 1020.0
20210613044140 59 141 0.0 2.0 0.00 0.00 0.00 17 1020.0
20210613043641 59 131 0.0 2.0 0.00 0.00 0.00 17 1020.0
20210613043140 59 251 0.0 1.0 0.00 0.00 0.00 17 1020.0
20210613042641 59 282 0.0 0.0 0.00 0.00 0.00 17 1019.9
20210613042141 60 282 0.0 1.0 0.00 0.00 0.00 16 1019.8
20210613041636 60 282 0.0 1.0 0.00 0.00 0.00 16 1019.8
20210613041132 61 283 0.0 0.0 0.00 0.00 0.00 15 1019.8
20210613040625 62 282 0.0 0.0 0.00 0.00 0.00 15 1019.8
20210613040119 62 283 0.0 0.0 0.00 0.00 0.00 15 1019.7
20210613035619 63 283 0.0 0.0 0.00 0.00 0.00 15 1019.6
20210613035112 64 282 0.0 0.0 0.00 0.00 0.00 14 1019.7
20210613034605 65 282 0.0 0.0 0.00 0.00 0.00 14 1019.6
20210613034104 65 282 0.0 0.0 0.00 0.00 0.00 13 1019.4
20210613033557 66 283 0.0 0.0 0.00 0.00 0.00 13 1019.4
20210613033051 67 283 0.0 0.0 0.00 0.00 0.00 12 1019.3
20210613032549 68 282 0.0 0.0 0.00 0.00 0.00 12 1019.3
20210613032047 69 283 0.0 0.0 0.00 0.00 0.00 11 1019.2
20210613031541 71 283 0.0 0.0 0.00 0.00 0.00 10 1019.2
20210613031035 72 283 0.0 0.0 0.00 0.00 0.00 9 1019.1
20210613030531 74 283 0.0 0.0 0.00 0.00 0.00 9 1019.0
20210613030027 75 283 0.0 0.0 0.00 0.00 0.00 8 1019.0
20210613025523 76 283 0.0 0.0 0.00 0.00 0.00 7 1018.8
20210613025021 78 283 0.0 0.0 0.00 0.00 0.00 7 1018.8
20210613024514 79 283 0.0 2.0 0.00 0.00 0.00 7 1018.7
20210613024011 80 283 0.0 2.0 0.00 0.00 0.00 6 1018.7
20210613023505 80 281 0.0 2.0 0.00 0.00 0.00 6 1018.7
20210613023000 81 281 0.0 5.0 0.00 0.00 0.00 6 1018.7
20210613022455 82 273 1.0 5.0 0.00 0.00 0.00 6 1018.7
20210613021953 83 258 1.0 6.0 0.00 0.00 0.00 6 1018.7
20210613021723 83 244 1.0 6.0 0.00 0.00 0.00 5 1018.7
20210613020947 84 278 1.0 6.0 0.00 0.00 0.00 5 1018.6
20210613020441 85 251 2.0 7.0 0.00 0.00 0.00 5 1018.6
20210613015936 86 162 2.0 7.0 0.00 0.00 0.00 5 1018.6
20210613015429 87 248 1.0 5.0 0.00 0.00 0.00 5 1018.6
20210613014931 88 250 1.0 6.0 0.00 0.00 0.00 5 1018.5
20210613014432 88 241 2.0 6.0 0.00 0.00 0.00 5 1018.5
20210613013929 88 263 2.0 7.0 0.00 0.00 0.00 4 1018.4
20210613013424 88 243 3.0 8.0 0.00 0.00 0.00 4 1018.4
20210613012926 88 116 3.0 8.0 0.00 0.00 0.00 5 1018.4
20210613012425 89 244 2.0 8.0 0.00 0.00 0.00 5 1018.4
20210613011925 89 195 2.0 9.0 0.00 0.00 0.00 4 1018.4
20210613011422 89 135 2.0 9.0 0.00 0.00 0.00 4 1018.4
20210613010922 89 280 2.0 9.0 0.00 0.00 0.00 4 1018.3
20210613010422 90 282 2.0 9.0 0.00 0.00 0.00 4 1018.4
20210613005923 90 271 2.0 7.0 0.00 0.00 0.00 4 1018.3
20210613005420 90 254 2.0 7.0 0.00 0.00 0.00 4 1018.4
20210613004918 90 255 3.0 11.0 0.00 0.00 0.00 4 1018.3
20210613004419 90 274 3.0 11.0 0.00 0.00 0.00 4 1018.3
20210613003921 90 257 4.0 12.0 0.00 0.00 0.00 4 1018.3
20210613003418 90 223 4.0 12.0 0.00 0.00 0.00 4 1018.4
20210613002916 90 260 4.0 9.0 0.00 0.00 0.00 4 1018.4
20210613002416 90 164 3.0 9.0 0.00 0.00 0.00 4 1018.3
20210613001917 91 273 3.0 9.0 0.00 0.00 0.00 4 1018.3
20210613001416 91 293 4.0 10.0 0.00 0.00 0.00 4 1018.4
20210613000917 91 264 4.0 10.0 0.00 0.00 0.00 4 1018.3
20210613000414 91 242 3.0 10.0 0.00 0.00 0.00 4 1018.4
20210612235910 91 223 4.0 10.0 0.00 0.00 0.00 4 1018.4
20210612235411 91 255 4.0 10.0 0.00 0.00 0.00 4 1018.4
20210612234910 92 245 3.0 10.0 0.00 0.00 0.00 4 1018.5
20210612234410 92 234 2.0 10.0 0.00 0.00 0.00 4 1018.5
20210612233909 92 233 3.0 10.0 0.00 0.00 0.00 5 1018.5
20210612233409 92 282 3.0 11.0 0.00 0.00 0.00 4 1018.6
20210612232903 91 274 4.0 12.0 0.00 0.00 0.00 4 1018.6
20210612232405 92 252 3.0 12.0 0.00 0.00 0.00 4 1018.6
20210612231905 92 244 2.0 8.0 0.00 0.00 0.00 4 1018.6
20210612231405 91 272 2.0 8.0 0.00 0.00 0.00 3 1018.6
20210612230903 91 250 2.0 10.0 0.00 0.00 0.00 3 1018.7
20210612230403 91 186 4.0 10.0 0.00 0.00 0.00 3 1018.8
20210612225859 91 159 5.0 12.0 0.00 0.00 0.00 2 1018.8
20210612225359 91 240 4.0 12.0 0.00 0.00 0.00 3 1018.8
20210612224859 91 145 4.0 12.0 0.00 0.00 0.00 3 1018.8
20210612224400 91 251 4.0 13.0 0.00 0.00 0.00 3 1018.8
20210612223857 91 242 4.0 13.0 0.00 0.00 0.00 2 1018.8
20210612223359 91 228 3.0 10.0 0.00 0.00 0.00 3 1018.8
20210612222853 93 65 2.0 12.0 0.00 0.00 0.00 3 1018.8
20210612222353 92 189 3.0 12.0 0.00 0.00 0.00 3 1019.0
20210612221853 91 212 3.0 10.0 0.00 0.00 0.00 3 1019.0
20210612221353 92 235 3.0 8.0 0.00 0.00 0.00 3 1019.0
20210612220852 91 13 4.0 12.0 0.00 0.00 0.00 3 1019.1
20210612220352 91 219 5.0 12.0 0.00 0.00 0.00 3 1019.1
20210612215848 91 221 5.0 12.0 0.00 0.00 0.00 3 1019.2
20210612215347 91 279 4.0 12.0 0.00 0.00 0.00 3 1019.2
20210612214847 91 248 3.0 11.0 0.00 0.00 0.00 3 1019.3
20210612214347 91 233 3.0 10.0 0.00 0.00 0.00 3 1019.2
20210612213846 91 262 4.0 10.0 0.00 0.00 0.00 3 1019.3
20210612213345 91 278 3.0 9.0 0.00 0.00 0.00 3 1019.2
20210612212841 91 237 4.0 11.0 0.00 0.00 0.00 3 1019.3
20210612212341 91 221 3.0 11.0 0.00 0.00 0.00 3 1019.3
20210612211837 90 221 3.0 11.0 0.00 0.00 0.00 4 1019.3
20210612211339 91 241 3.0 11.0 0.00 0.00 0.00 4 1019.3
20210612210839 91 251 3.0 10.0 0.00 0.00 0.00 4 1019.4
20210612210341 90 246 4.0 10.0 0.00 0.00 0.00 4 1019.4
20210612205832 91 259 3.0 10.0 0.00 0.00 0.00 4 1019.4
20210612205331 91 140 3.0 10.0 0.00 0.00 0.00 4 1019.7
20210612204829 90 148 3.0 10.0 0.00 0.00 0.00 4 1019.7
20210612204327 90 205 3.0 10.0 0.00 0.00 0.00 4 1019.7
20210612203829 90 280 4.0 10.0 0.00 0.00 0.00 4 1019.7
20210612203323 90 259 4.0 11.0 0.00 0.00 0.00 4 1019.7
20210612202825 90 171 4.0 11.0 0.00 0.00 0.00 4 1019.7
20210612202324 89 221 4.0 11.0 0.00 0.00 0.00 4 1019.8
20210612201825 89 315 3.0 11.0 0.00 0.00 0.00 4 1019.9
20210612201322 90 276 3.0 11.0 0.00 0.00 0.00 4 1019.9
20210612200821 90 273 4.0 11.0 0.00 0.00 0.00 4 1019.9
20210612200318 89 238 4.0 12.0 0.00 0.00 0.00 4 1019.9
20210612195818 89 228 4.0 12.0 0.00 0.00 0.00 4 1019.9
20210612195318 89 251 5.0 13.0 0.00 0.00 0.00 4 1020.0
20210612194817 89 251 5.0 13.0 0.00 0.00 0.00 4 1019.9
20210612194316 89 217 4.0 10.0 0.00 0.00 0.00 5 1019.9
20210612193815 89 250 3.0 10.0 0.00 0.00 0.00 5 1020.0
20210612193305 88 186 4.0 10.0 0.00 0.00 0.00 4 1020.0
20210612192805 88 262 4.0 12.0 0.00 0.00 0.00 4 1020.0
20210612192305 88 238 4.0 12.0 0.00 0.00 0.00 5 1019.9
20210612191805 88 283 4.0 13.0 0.00 0.00 0.00 4 1020.0
20210612191306 88 276 4.0 13.0 0.00 0.00 0.00 5 1020.2
20210612190805 88 260 4.0 10.0 0.00 0.00 0.00 5 1020.0
20210612190258 88 262 4.0 11.0 0.00 0.00 0.00 5 1020.2
20210612185758 88 259 3.0 11.0 0.00 0.00 0.00 5 1020.0
20210612185300 88 248 3.0 11.0 0.00 0.00 0.00 5 1020.2
20210612184759 88 248 3.0 12.0 0.00 0.00 0.00 4 1020.2
20210612184300 88 256 2.0 12.0 0.00 0.00 0.00 5 1020.2
20210612183801 88 216 2.0 8.0 0.00 0.00 0.00 5 1020.3
20210612183254 88 241 3.0 8.0 0.00 0.00 0.00 5 1020.3
20210612182754 88 171 3.0 8.0 0.00 0.00 0.00 5 1020.3
20210612182255 87 175 3.0 10.0 0.00 0.00 0.00 5 1020.3
20210612181755 87 196 3.0 10.0 0.00 0.00 0.00 5 1020.3
20210612181253 87 268 4.0 11.0 0.00 0.00 0.00 5 1020.3
20210612180753 86 233 4.0 11.0 0.00 0.00 0.00 5 1020.2
20210612180250 86 251 4.0 10.0 0.00 0.00 0.00 5 1020.2
20210612175747 86 246 4.0 11.0 0.00 0.00 0.00 5 1020.3
20210612175248 86 213 4.0 11.0 0.00 0.00 0.00 6 1020.2
20210612174748 86 264 4.0 10.0 0.00 0.00 0.00 6 1020.2
20210612174245 86 214 4.0 10.0 0.00 0.00 0.00 5 1020.3
20210612173745 86 278 3.0 8.0 0.00 0.00 0.00 6 1020.2
20210612173242 86 270 3.0 8.0 0.00 0.00 0.00 6 1020.3
20210612172743 85 279 3.0 9.0 0.00 0.00 0.00 6 1020.3
20210612172241 85 280 4.0 9.0 0.00 0.00 0.00 6 1020.3
20210612171743 85 224 3.0 7.0 0.00 0.00 0.00 6 1020.2
20210612171239 85 221 3.0 7.0 0.00 0.00 0.00 6 1020.3
20210612170740 85 221 3.0 8.0 0.00 0.00 0.00 6 1020.2
20210612170235 85 259 3.0 8.0 0.00 0.00 0.00 6 1020.2
20210612165734 84 168 3.0 6.0 0.00 0.00 0.00 6 1020.2
20210612165236 85 254 3.0 7.0 0.00 0.00 0.00 5 1020.3
20210612164736 85 284 2.0 7.0 0.00 0.00 0.00 6 1020.2
20210612164235 85 237 2.0 6.0 0.00 0.00 0.00 5 1020.2
20210612163736 86 237 1.0 6.0 0.00 0.00 0.00 5 1020.2
20210612163232 85 250 1.0 6.0 0.00 0.00 0.00 6 1020.2
20210612162730 85 193 2.0 7.0 0.00 0.00 0.00 6 1020.0
20210612162230 84 243 2.0 8.0 0.00 0.00 0.00 6 1020.0
20210612161730 84 257 2.0 8.0 0.00 0.00 0.00 6 1020.0
20210612161227 84 264 2.0 7.0 0.00 0.00 0.00 6 1020.2
20210612160731 84 277 2.0 7.0 0.00 0.00 0.00 6 1020.2
20210612160224 84 230 2.0 6.0 0.00 0.00 0.00 6 1020.2
20210612155722 83 233 2.0 6.0 0.00 0.00 0.00 6 1020.2
20210612155223 83 257 2.0 6.0 0.00 0.00 0.00 6 1020.2
20210612154723 83 189 2.0 6.0 0.00 0.00 0.00 6 1020.2
20210612154221 83 231 2.0 7.0 0.00 0.00 0.00 6 1020.0
20210612153722 83 228 2.0 7.0 0.00 0.00 0.00 6 1020.0
20210612153218 83 273 1.0 4.0 0.00 0.00 0.00 7 1019.9
20210612152718 83 262 1.0 3.0 0.00 0.00 0.00 8 1020.0
20210612152220 82 242 1.0 3.0 0.00 0.00 0.00 10 1019.9
20210612151718 81 142 1.0 3.0 0.00 0.00 0.00 9 1019.9
20210612151216 80 79 2.0 4.0 0.00 0.00 0.00 9 1019.9
20210612150717 79 105 1.0 4.0 0.00 0.00 0.00 10 1019.9
20210612150209 79 81 1.0 4.0 0.00 0.00 0.00 10 1019.9
20210612145707 77 88 2.0 4.0 0.00 0.00 0.00 13 1019.9
20210612145205 76 87 1.0 4.0 0.00 0.00 0.00 13 1019.9
20210612144703 74 89 1.0 4.0 0.00 0.00 0.00 17 1019.9
20210612144205 73 96 2.0 4.0 0.00 0.00 0.00 17 1019.9
20210612143659 71 93 2.0 5.0 0.00 0.00 0.00 18 1019.8
20210612143200 70 96 2.0 5.0 0.00 0.00 0.00 19 1019.8
20210612142658 68 115 1.0 3.0 0.00 0.00 0.00 20 1019.7
20210612142159 67 93 1.0 4.0 0.00 0.00 0.00 21 1019.7
20210612141657 66 103 0.0 4.0 0.00 0.00 0.00 21 1019.8
20210612141157 65 160 0.0 1.0 0.00 0.00 0.00 21 1019.6
20210612140656 63 160 0.0 3.0 0.00 0.00 0.00 23 1019.6
20210612140153 61 157 1.0 3.0 0.00 0.00 0.00 23 1019.4
20210612135654 60 155 1.0 4.0 0.00 0.00 0.00 24 1019.4
20210612135153 58 142 1.0 7.0 0.00 0.00 0.00 25 1019.6
20210612134652 57 179 2.0 7.0 0.00 0.00 0.00 25 1019.6
20210612134151 56 169 3.0 8.0 0.00 0.00 0.00 24 1019.4
20210612133648 55 80 2.0 8.0 0.00 0.00 0.00 24 1019.4
20210612133148 54 196 0.0 3.0 0.00 0.00 0.00 25 1019.4
20210612132649 53 189 0.0 2.0 0.00 0.00 0.00 25 1019.4
20210612132149 53 161 0.0 2.0 0.00 0.00 0.00 25 1019.3
20210612131647 51 148 0.0 5.0 0.00 0.00 0.00 25 1019.3
20210612131147 50 167 0.0 5.0 0.00 0.00 0.00 26 1019.3
20210612130645 49 138 2.0 7.0 0.00 0.00 0.00 27 1019.3
20210612130142 48 82 2.0 7.0 0.00 0.00 0.00 27 1019.2
20210612125645 47 155 1.0 3.0 0.00 0.00 0.00 28 1019.2
20210612125141 45 174 1.0 3.0 0.00 0.00 0.00 30 1019.2
20210612124639 44 136 0.0 3.0 0.00 0.00 0.00 31 1019.2
20210612124139 42 161 0.0 4.0 0.00 0.00 0.00 31 1019.1
20210612123636 42 162 1.0 4.0 0.00 0.00 0.00 31 1019.1
20210612123134 42 188 1.0 5.0 0.00 0.00 0.00 31 1019.1
20210612122635 42 116 1.0 5.0 0.00 0.00 0.00 31 1019.0
20210612122137 42 124 1.0 3.0 0.00 0.00 0.00 30 1019.0
20210612121634 42 159 0.0 3.0 0.00 0.00 0.00 31 1018.8
20210612121134 42 148 0.0 3.0 0.00 0.00 0.00 31 1018.8
20210612120626 42 176 0.0 2.0 0.00 0.00 0.00 30 1018.8
20210612120126 42 199 0.0 4.0 0.00 0.00 0.00 30 1019.0
20210612115624 42 183 0.0 4.0 0.00 0.00 0.00 30 1019.0
20210612115122 42 140 1.0 4.0 0.00 0.00 0.00 30 1018.8
20210612114622 42 138 1.0 4.0 0.00 0.00 0.00 30 1018.7
20210612114120 42 231 0.0 1.0 0.00 0.00 0.00 30 1018.8
20210612113617 42 231 0.0 1.0 0.00 0.00 0.00 30 1018.8
20210612113117 43 231 0.0 4.0 0.00 0.00 0.00 29 1018.8
20210612112617 43 247 1.0 4.0 0.00 0.00 0.00 29 1019.0
20210612112116 44 161 1.0 6.0 0.00 0.00 0.00 28 1019.0
20210612111617 44 157 1.0 6.0 0.00 0.00 0.00 28 1019.0
20210612111111 44 149 2.0 6.0 0.00 0.00 0.00 28 1018.8
20210612110611 44 159 1.0 6.0 0.00 0.00 0.00 27 1018.8
20210612110109 44 168 2.0 7.0 0.00 0.00 0.00 27 1018.8
20210612105611 45 138 3.0 7.0 0.00 0.00 0.00 26 1018.7
20210612105109 45 93 2.0 7.0 0.00 0.00 0.00 26 1018.8
20210612104609 43 121 1.0 3.0 0.00 0.00 0.00 28 1018.8
20210612104106 43 219 1.0 3.0 0.00 0.00 0.00 28 1018.8
20210612103605 43 210 0.0 3.0 0.00 0.00 0.00 28 1019.0
20210612103105 44 206 0.0 3.0 0.00 0.00 0.00 28 1019.0
20210612102605 44 144 0.0 3.0 0.00 0.00 0.00 27 1019.1
20210612102103 43 190 0.0 3.0 0.00 0.00 0.00 28 1019.0
20210612101603 44 196 1.0 3.0 0.00 0.00 0.00 28 1019.0
20210612101101 44 174 1.0 3.0 0.00 0.00 0.00 28 1019.0
20210612100600 44 142 0.0 2.0 0.00 0.00 0.00 27 1019.0
20210612100056 44 174 0.0 4.0 0.00 0.00 0.00 27 1019.0
20210612095555 44 207 0.0 4.0 0.00 0.00 0.00 27 1019.0
20210612095056 44 207 0.0 4.0 0.00 0.00 0.00 27 1019.0
20210612094555 44 209 1.0 4.0 0.00 0.00 0.00 27 1019.1
20210612094052 45 190 1.0 3.0 0.00 0.00 0.00 27 1019.1
20210612093550 45 144 1.0 4.0 0.00 0.00 0.00 26 1019.0
20210612093048 45 123 1.0 4.0 0.00 0.00 0.00 26 1019.0
20210612092550 45 174 0.0 6.0 0.00 0.00 0.00 26 1019.1
20210612092050 45 155 1.0 6.0 0.00 0.00 0.00 26 1019.1
20210612091552 46 152 1.0 6.0 0.00 0.00 0.00 25 1019.1
20210612091043 46 147 1.0 6.0 0.00 0.00 0.00 25 1019.1
20210612090542 46 162 1.0 5.0 0.00 0.00 0.00 25 1019.1
20210612090043 46 164 1.0 5.0 0.00 0.00 0.00 25 1019.2
20210612085543 46 192 1.0 5.0 0.00 0.00 0.00 25 1019.1
20210612085044 46 179 2.0 5.0 0.00 0.00 0.00 25 1019.2
20210612084543 46 167 3.0 6.0 0.00 0.00 0.00 25 1019.1
20210612084038 46 93 2.0 6.0 0.00 0.00 0.00 25 1019.1
20210612083537 46 129 2.0 5.0 0.00 0.00 0.00 25 1019.2
20210612083038 46 154 1.0 5.0 0.00 0.00 0.00 25 1019.2
20210612082538 46 143 0.0 3.0 0.00 0.00 0.00 25 1019.3
20210612082037 46 165 0.0 3.0 0.00 0.00 0.00 25 1019.4
20210612081537 46 164 1.0 3.0 0.00 0.00 0.00 24 1019.3